#�ϑ�����,���ϕ���,���ϕ���,�ő啗��,�ő啗����������,�ő�u�ԕ���,�ő�u�ԕ�����������
#(�N����),(m/s)   ,(16����),(m/s)   ,(16����)        ,(m/s)       ,(16����)            
2014/2/12 0:01,2.7,2,2.8,2,3.1,3
2014/2/12 0:02,2.5,2,2.7,2,2.4,3
2014/2/12 0:03,2.4,2,2.4,2,3.2,3
2014/2/12 0:04,2.4,2,2.4,2,5.8,4
2014/2/12 0:05,2.4,2,2.4,2,4.7,3
2014/2/12 0:06,2.5,2,2.5,2,5,1
2014/2/12 0:07,2.6,2,2.7,2,8.5,2
2014/2/12 0:08,2.7,2,2.7,2,7.5,1
2014/2/12 0:09,3.1,2,3.1,2,11.8,1
2014/2/12 0:10,3.4,2,3.4,2,7.2,1
2014/2/12 0:11,3.6,2,3.6,2,6.2,3
2014/2/12 0:12,3.7,2,3.7,2,4.2,2
2014/2/12 0:13,3.9,2,3.9,2,6.3,15
2014/2/12 0:14,4,2,4.1,2,10.3,2
2014/2/12 0:15,4.1,2,4.1,2,7.5,2
2014/2/12 0:16,4,2,4.1,2,3.5,2
2014/2/12 0:17,3.8,2,4,2,4.4,3
2014/2/12 0:18,3.7,2,3.8,2,5.5,2
2014/2/12 0:19,3.3,2,3.6,2,5,3
2014/2/12 0:20,3.2,2,3.3,2,7.7,1
2014/2/12 0:21,3.3,2,3.3,2,10.2,3
2014/2/12 0:22,3.5,2,3.5,2,7.8,1
2014/2/12 0:23,3.5,2,3.5,2,4.8,3
2014/2/12 0:24,3.3,2,3.5,1,4.2,3
2014/2/12 0:25,3.1,2,3.3,2,4.5,1
2014/2/12 0:26,3.1,2,3.1,2,4.3,1
2014/2/12 0:27,3.2,2,3.2,2,4.8,1
2014/2/12 0:28,3.2,2,3.2,2,6.1,2
2014/2/12 0:29,3.4,2,3.4,2,7,2
2014/2/12 0:30,3.7,2,3.7,2,11.3,2
2014/2/12 0:31,3.6,2,3.7,2,9.8,2
2014/2/12 0:32,3.7,2,3.7,2,10.5,2
2014/2/12 0:33,3.8,1,3.8,2,6.9,16
2014/2/12 0:34,3.7,1,3.8,2,6.3,3
2014/2/12 0:35,3.9,2,3.9,2,7.5,1
2014/2/12 0:36,4.3,2,4.3,2,9.4,2
2014/2/12 0:37,4.5,2,4.5,2,9.1,2
2014/2/12 0:38,4.5,2,4.5,2,6.5,1
2014/2/12 0:39,4.3,2,4.5,2,5,1
2014/2/12 0:40,4.3,1,4.4,2,9.1,2
2014/2/12 0:41,4.2,1,4.4,2,8.1,2
2014/2/12 0:42,4,1,4.2,2,7.9,2
2014/2/12 0:43,4,2,4,2,8.7,2
2014/2/12 0:44,4.1,2,4.1,2,8.4,2
2014/2/12 0:45,4.2,1,4.2,2,10.8,2
2014/2/12 0:46,4.1,1,4.2,2,7.6,2
2014/2/12 0:47,3.8,1,4,2,6,2
2014/2/12 0:48,3.9,1,3.9,2,10.1,16
2014/2/12 0:49,4,1,4,2,8.5,16
2014/2/12 0:50,3.8,1,4.1,1,5.4,16
2014/2/12 0:51,3.7,1,3.7,1,6.7,2
2014/2/12 0:52,4,1,4,2,6.9,4
2014/2/12 0:53,3.9,1,4,2,7.6,3
2014/2/12 0:54,3.8,1,3.9,2,5.1,1
2014/2/12 0:55,3.7,2,3.8,1,9.3,2
2014/2/12 0:56,3.8,2,3.8,1,13,3
2014/2/12 0:57,4,2,4,1,8.5,3
2014/2/12 0:58,4.2,2,4.2,2,10.3,3
2014/2/12 0:59,4.4,2,4.4,2,8.2,4
2014/2/12 1:00,4.4,2,4.5,2,6.3,3
2014/2/12 1:01,4.4,2,4.5,2,7.2,1
2014/2/12 1:02,4.4,2,4.5,2,8.3,3
2014/2/12 1:03,4.4,2,4.4,2,5.7,2
2014/2/12 1:04,4.3,2,4.4,2,4.4,1
2014/2/12 1:05,4.1,3,4.3,2,4.4,5
2014/2/12 1:06,3.8,3,4.1,2,4.1,4
2014/2/12 1:07,3.6,3,3.8,2,7.9,16
2014/2/12 1:08,3.5,3,3.7,2,8.5,2
2014/2/12 1:09,3.3,2,3.5,2,7.6,2
2014/2/12 1:10,3.2,2,3.3,2,5.2,1
2014/2/12 1:11,3.1,3,3.2,2,5.1,4
2014/2/12 1:12,2.7,2,3.1,2,3.5,16
2014/2/12 1:13,2.5,2,2.7,2,2,8
2014/2/12 1:14,2.5,3,2.5,2,2.7,2
2014/2/12 1:15,2.4,2,2.5,3,3.6,4
2014/2/12 1:16,2.8,2,2.8,3,10.5,2
2014/2/12 1:17,3.1,3,3.1,3,8.2,4
2014/2/12 1:18,3,2,3.1,2,7,2
2014/2/12 1:19,3.1,3,3.2,2,11,1
2014/2/12 1:20,3.2,2,3.2,2,6.8,1
2014/2/12 1:21,3.5,2,3.5,2,12.1,3
2014/2/12 1:22,3.8,2,3.8,2,8.1,1
2014/2/12 1:23,4.2,2,4.2,2,7.7,3
2014/2/12 1:24,4.4,2,4.4,2,6.3,3
2014/2/12 1:25,4.6,2,4.6,2,6.9,4
2014/2/12 1:26,4.4,2,4.6,2,5.8,3
2014/2/12 1:27,4.2,2,4.3,2,6.2,2
2014/2/12 1:28,4.2,2,4.3,2,7.5,2
2014/2/12 1:29,4,2,4.2,2,5.5,2
2014/2/12 1:30,4,2,4,2,6.1,3
2014/2/12 1:31,3.8,2,4.1,2,5.6,3
2014/2/12 1:32,3.6,3,3.8,2,5.1,3
2014/2/12 1:33,3.4,3,3.6,2,5.2,2
2014/2/12 1:34,3.4,3,3.5,2,5.6,3
2014/2/12 1:35,3.1,3,3.4,2,2.7,3
2014/2/12 1:36,2.9,3,3.1,2,3.5,6
2014/2/12 1:37,2.7,3,2.9,2,4.4,4
2014/2/12 1:38,2.5,3,2.7,2,3.5,3
2014/2/12 1:39,2.4,3,2.5,2,2.9,5
2014/2/12 1:40,2.4,3,2.4,2,3.9,3
2014/2/12 1:41,2.1,3,2.3,3,3.5,2
2014/2/12 1:42,2,3,2.1,3,2.4,3
2014/2/12 1:43,1.9,3,2,3,2.2,3
2014/2/12 1:44,1.6,4,1.9,3,1.6,3
2014/2/12 1:45,1.8,3,1.8,3,4.7,7
2014/2/12 1:46,1.9,3,1.9,3,3.5,3
2014/2/12 1:47,1.9,3,1.9,3,2.6,2
2014/2/12 1:48,1.9,3,1.9,3,3.6,4
2014/2/12 1:49,2,3,2,3,5,5
2014/2/12 1:50,2.1,3,2.1,3,5.5,5
2014/2/12 1:51,2.1,4,2.1,3,3.9,5
2014/2/12 1:52,2.1,4,2.1,3,3,5
2014/2/12 1:53,2.3,4,2.3,4,6.1,2
2014/2/12 1:54,2.6,3,2.6,3,6.4,1
2014/2/12 1:55,2.8,3,2.8,3,8.1,4
2014/2/12 1:56,2.9,3,2.9,3,6.9,3
2014/2/12 1:57,3.2,3,3.2,3,8.2,3
2014/2/12 1:58,3.5,3,3.5,3,9,2
2014/2/12 1:59,3.6,3,3.6,3,7.8,2
2014/2/12 2:00,3.5,3,3.6,3,4.7,1
2014/2/12 2:01,3.7,3,3.7,3,5.5,6
2014/2/12 2:02,3.8,3,3.8,3,3.7,6
2014/2/12 2:03,3.9,3,3.9,3,4.5,3
2014/2/12 2:04,3.9,3,3.9,3,5.6,6
2014/2/12 2:05,3.9,3,3.9,3,8.1,3
2014/2/12 2:06,3.8,3,3.8,3,5.6,15
2014/2/12 2:07,3.6,3,3.9,3,4.9,2
2014/2/12 2:08,3.4,3,3.6,3,6.2,1
2014/2/12 2:09,3.1,3,3.4,3,5.4,3
2014/2/12 2:10,3.1,3,3.1,3,5.8,4
2014/2/12 2:11,3.2,2,3.2,3,10.1,1
2014/2/12 2:12,3.4,2,3.4,3,6.9,3
2014/2/12 2:13,3.4,3,3.4,3,6.3,5
2014/2/12 2:14,3.5,3,3.6,3,10,4
2014/2/12 2:15,3.6,3,3.6,3,9.5,15
2014/2/12 2:16,3.6,3,3.6,3,5,1
2014/2/12 2:17,3.7,3,3.7,3,6.3,4
2014/2/12 2:18,3.9,3,3.9,3,9,3
2014/2/12 2:19,4,3,4,3,9.4,3
2014/2/12 2:20,4.1,3,4.1,3,7.1,1
2014/2/12 2:21,4,3,4.1,3,6.9,3
2014/2/12 2:22,3.9,3,4,3,5.5,2
2014/2/12 2:23,3.8,3,3.9,3,3.9,3
2014/2/12 2:24,3.5,3,3.8,3,3.3,4
2014/2/12 2:25,3.2,3,3.5,3,2.9,10
2014/2/12 2:26,3.1,4,3.2,3,3.3,7
2014/2/12 2:27,3,4,3.1,3,3.2,7
2014/2/12 2:28,2.9,4,3.1,3,4.2,5
2014/2/12 2:29,2.9,4,2.9,3,6.4,4
2014/2/12 2:30,3,4,3,3,5.8,4
2014/2/12 2:31,2.7,5,2.9,3,4.2,5
2014/2/12 2:32,2.7,5,2.7,3,4.9,7
2014/2/12 2:33,2.7,6,2.8,3,5.1,8
2014/2/12 2:34,2.7,6,2.7,3,3.1,7
2014/2/12 2:35,2.8,6,2.8,3,3,5
2014/2/12 2:36,2.8,5,2.8,4,3.9,2
2014/2/12 2:37,2.7,5,2.8,4,3.8,16
2014/2/12 2:38,2.6,5,2.7,4,5,4
2014/2/12 2:39,2.8,5,2.8,4,8.3,3
2014/2/12 2:40,2.7,4,2.8,5,7.1,3
2014/2/12 2:41,3,4,3,4,9.4,1
2014/2/12 2:42,3.1,4,3.1,4,7.6,3
2014/2/12 2:43,3.1,3,3.1,4,4.4,5
2014/2/12 2:44,3.1,3,3.2,3,3.8,6
2014/2/12 2:45,3.1,3,3.2,3,3.6,13
2014/2/12 2:46,3,3,3.1,3,5.4,15
2014/2/12 2:47,3.2,3,3.2,3,7,5
2014/2/12 2:48,3.3,3,3.3,3,4.3,8
2014/2/12 2:49,2.9,4,3.3,3,3.2,8
2014/2/12 2:50,2.6,4,2.9,3,2.4,10
2014/2/12 2:51,2.3,6,2.6,3,3,10
2014/2/12 2:52,2.1,8,2.2,3,7.6,15
2014/2/12 2:53,2.2,11,2.2,3,7.4,16
2014/2/12 2:54,2.2,14,2.3,3,7.5,16
2014/2/12 2:55,2.3,2,2.3,3,4.7,3
2014/2/12 2:56,2.3,8,2.3,3,3.1,3
2014/2/12 2:57,2.1,9,2.3,3,2.7,9
2014/2/12 2:58,1.9,9,2.1,3,1.9,4
2014/2/12 2:59,1.9,5,1.9,4,4.2,7
2014/2/12 3:00,2,3,2,5,4.2,1
2014/2/12 3:01,2.3,2,2.3,11,6.9,1
2014/2/12 3:02,2.3,2,2.3,11,6.7,1
2014/2/12 3:03,2.6,3,2.6,3,12.6,3
2014/2/12 3:04,2.9,3,2.9,3,13.5,1
2014/2/12 3:05,3.5,2,3.5,2,13.6,1
2014/2/12 3:06,4.1,2,4.1,2,10.8,2
2014/2/12 3:07,4.4,2,4.4,2,12.5,15
2014/2/12 3:08,4.9,2,4.9,2,12.1,3
2014/2/12 3:09,5.2,1,5.2,2,11.1,3
2014/2/12 3:10,5.7,1,5.7,1,9.4,2
2014/2/12 3:11,5.8,1,5.8,1,7.6,1
2014/2/12 3:12,6.1,1,6.1,1,12.5,1
2014/2/12 3:13,6.3,1,6.3,1,15.3,2
2014/2/12 3:14,6.4,1,6.5,1,14.5,16
2014/2/12 3:15,5.8,1,6.3,1,7.2,1
2014/2/12 3:16,5.7,1,5.8,1,11.7,16
2014/2/12 3:17,5.9,1,5.9,1,12.5,2
2014/2/12 3:18,6,1,6,1,11.8,16
2014/2/12 3:19,6.2,1,6.2,1,13,2
2014/2/12 3:20,6.4,1,6.4,1,14.7,16
2014/2/12 3:21,6.5,1,6.6,1,11.7,2
2014/2/12 3:22,6.5,1,6.6,1,12.4,2
2014/2/12 3:23,6.3,1,6.4,1,11.3,3
2014/2/12 3:24,6.1,1,6.3,1,9.9,2
2014/2/12 3:25,6.3,1,6.3,1,7.8,2
2014/2/12 3:26,6.3,1,6.4,1,15,15
2014/2/12 3:27,6.2,1,6.3,1,10.9,15
2014/2/12 3:28,6.3,1,6.4,1,11.8,1
2014/2/12 3:29,6.3,1,6.4,1,14,1
2014/2/12 3:30,6.4,1,6.5,1,17.2,16
2014/2/12 3:31,6.1,1,6.3,1,6.8,2
2014/2/12 3:32,6,1,6.1,1,9.3,1
2014/2/12 3:33,6,1,6.1,1,10.1,3
2014/2/12 3:34,6,1,6.1,1,11.5,15
2014/2/12 3:35,5.9,1,6,1,7.7,2
2014/2/12 3:36,6,1,6,1,12.5,16
2014/2/12 3:37,6.2,1,6.2,1,14.7,2
2014/2/12 3:38,5.9,1,6.2,1,13.1,3
2014/2/12 3:39,5.8,1,5.8,1,12.6,1
2014/2/12 3:40,5.5,1,5.8,1,16,1
2014/2/12 3:41,5.7,1,5.7,1,10.5,15
2014/2/12 3:42,5.9,1,5.9,1,13.3,2
2014/2/12 3:43,6,1,6.2,1,15.3,2
2014/2/12 3:44,6,1,6,1,10.9,3
2014/2/12 3:45,6.4,1,6.4,1,10.6,2
2014/2/12 3:46,6.5,1,6.5,1,12.7,2
2014/2/12 3:47,6,2,6.4,1,8.2,16
2014/2/12 3:48,5.8,2,5.9,1,7.7,2
2014/2/12 3:49,5.5,2,5.8,1,9,3
2014/2/12 3:50,5.3,2,5.5,1,11.7,1
2014/2/12 3:51,5.5,2,5.5,1,13.1,2
2014/2/12 3:52,5.4,2,5.5,1,9.5,2
2014/2/12 3:53,5.1,2,5.3,1,9.3,1
2014/2/12 3:54,5,1,5.2,1,11.9,2
2014/2/12 3:55,4.5,2,5,1,6.7,2
2014/2/12 3:56,4.2,1,4.5,1,10,2
2014/2/12 3:57,4.5,1,4.5,2,10.8,2
2014/2/12 3:58,4.8,1,4.8,2,9.2,1
2014/2/12 3:59,5.3,1,5.3,2,14.9,2
2014/2/12 4:00,5.6,1,5.6,1,13.4,1
2014/2/12 4:01,5.3,1,5.5,1,8.9,2
2014/2/12 4:02,5.3,1,5.3,1,10.1,1
2014/2/12 4:03,5.3,1,5.3,1,8.1,14
2014/2/12 4:04,5.2,2,5.4,1,9.8,3
2014/2/12 4:05,5.7,2,5.7,2,13.8,1
2014/2/12 4:06,6.2,2,6.2,2,13.4,1
2014/2/12 4:07,6.1,2,6.2,2,10.3,2
2014/2/12 4:08,6.1,2,6.1,2,10.3,2
2014/2/12 4:09,6.2,2,6.3,2,13.4,1
2014/2/12 4:10,5.8,2,6.2,2,10.5,16
2014/2/12 4:11,5.8,2,5.8,2,8.2,4
2014/2/12 4:12,6,2,6,2,11.7,14
2014/2/12 4:13,6.1,2,6.2,2,11.8,1
2014/2/12 4:14,6.4,1,6.4,1,15.1,2
2014/2/12 4:15,6.3,1,6.5,1,15.6,1
2014/2/12 4:16,6.1,1,6.3,1,13.4,1
2014/2/12 4:17,6.1,1,6.1,1,9.4,16
2014/2/12 4:18,6.1,1,6.2,1,9,1
2014/2/12 4:19,5.5,1,6,1,6.5,1
2014/2/12 4:20,5.5,1,5.5,1,9.4,15
2014/2/12 4:21,5.7,1,5.7,1,12.6,16
2014/2/12 4:22,5.5,1,5.7,1,7.9,2
2014/2/12 4:23,5.7,1,5.7,1,12.8,1
2014/2/12 4:24,5.5,1,5.8,1,11,16
2014/2/12 4:25,5.2,1,5.4,1,8.3,1
2014/2/12 4:26,5,1,5.2,1,7.8,16
2014/2/12 4:27,5,1,5.2,1,13.1,15
2014/2/12 4:28,5.3,1,5.3,1,14.4,2
2014/2/12 4:29,5.4,1,5.4,1,9.3,2
2014/2/12 4:30,5.3,1,5.4,1,8.2,2
2014/2/12 4:31,5.3,1,5.3,1,13,16
2014/2/12 4:32,5.5,1,5.6,1,13.6,1
2014/2/12 4:33,5.5,1,5.5,1,10.2,2
2014/2/12 4:34,5.3,1,5.4,1,8.2,16
2014/2/12 4:35,5.3,1,5.3,1,8.5,1
2014/2/12 4:36,5.8,1,5.8,1,14.1,1
2014/2/12 4:37,5.6,1,5.8,1,8.3,2
2014/2/12 4:38,5.4,1,5.5,1,11.4,2
2014/2/12 4:39,5.5,1,5.5,1,12.5,1
2014/2/12 4:40,5.9,1,5.9,1,10.8,2
2014/2/12 4:41,5.7,1,5.9,1,11,16
2014/2/12 4:42,5.5,1,5.6,1,9.7,2
2014/2/12 4:43,5.3,1,5.6,1,11,3
2014/2/12 4:44,5.7,1,5.7,1,15.1,1
2014/2/12 4:45,6.1,2,6.1,2,11.7,3
2014/2/12 4:46,6.1,2,6.2,2,15.6,4
2014/2/12 4:47,6.3,2,6.3,2,9.3,2
2014/2/12 4:48,6.4,2,6.5,2,10.1,2
2014/2/12 4:49,6.1,2,6.4,2,8.3,2
2014/2/12 4:50,6.2,2,6.2,2,13.2,3
2014/2/12 4:51,6.2,2,6.2,2,11.5,4
2014/2/12 4:52,6.3,2,6.4,2,12.6,3
2014/2/12 4:53,6.3,2,6.3,2,8.1,3
2014/2/12 4:54,5.8,3,6.2,2,6.9,2
2014/2/12 4:55,5.5,3,5.8,2,7,1
2014/2/12 4:56,4.7,3,5.3,2,4.2,4
2014/2/12 4:57,4.4,3,4.7,2,3.2,3
2014/2/12 4:58,4,3,4.3,2,4.2,16
2014/2/12 4:59,3.8,2,4,2,5.1,1
2014/2/12 5:00,3.5,2,3.8,2,7.4,2
2014/2/12 5:01,3.3,3,3.6,2,8.9,3
2014/2/12 5:02,2.9,2,3.3,2,5.1,3
2014/2/12 5:03,2.7,3,2.9,2,5.2,16
2014/2/12 5:04,2.7,3,2.7,3,10.7,1
2014/2/12 5:05,2.8,2,2.8,2,11.8,16
2014/2/12 5:06,3.3,2,3.3,3,11,1
2014/2/12 5:07,3.8,2,3.8,3,9.7,2
2014/2/12 5:08,4.2,2,4.2,2,12.4,1
2014/2/12 5:09,4.5,2,4.5,2,11.1,2
2014/2/12 5:10,4.5,2,4.7,2,7.8,1
2014/2/12 5:11,4.6,2,4.6,2,8.3,3
2014/2/12 5:12,5.3,2,5.3,2,16.2,2
2014/2/12 5:13,5.9,2,5.9,2,12.2,3
2014/2/12 5:14,6.2,2,6.2,2,10,3
2014/2/12 5:15,6.3,2,6.4,2,11.6,3
2014/2/12 5:16,6,2,6.3,2,7,3
2014/2/12 5:17,5.7,2,6,2,6.1,2
2014/2/12 5:18,5.5,2,5.7,2,8.5,2
2014/2/12 5:19,5.5,2,5.5,2,11.4,2
2014/2/12 5:20,5.5,2,5.5,2,8.2,3
2014/2/12 5:21,5.3,2,5.5,2,8.2,1
2014/2/12 5:22,5.2,2,5.3,2,14.5,2
2014/2/12 5:23,4.9,2,5.1,2,11.9,14
2014/2/12 5:24,4.7,2,4.9,2,7.8,2
2014/2/12 5:25,4.5,2,4.7,2,7.8,3
2014/2/12 5:26,4.4,2,4.5,2,6,5
2014/2/12 5:27,4.4,2,4.4,2,10.6,16
2014/2/12 5:28,4.6,2,4.7,2,8.1,2
2014/2/12 5:29,4.3,2,4.6,2,8.4,2
2014/2/12 5:30,4.6,2,4.6,2,11.9,1
2014/2/12 5:31,4.8,2,4.8,2,8.7,2
2014/2/12 5:32,4.5,2,4.8,2,6.5,1
2014/2/12 5:33,4.5,2,4.6,2,11.7,1
2014/2/12 5:34,4.5,2,4.5,2,6.5,5
2014/2/12 5:35,4.4,3,4.5,2,5.8,6
2014/2/12 5:36,4.4,3,4.4,2,3.9,4
2014/2/12 5:37,4.2,3,4.3,2,3.3,4
2014/2/12 5:38,3.9,3,4.1,2,3.7,15
2014/2/12 5:39,3.9,3,4,2,6.7,2
2014/2/12 5:40,3.5,3,3.9,2,6.8,5
2014/2/12 5:41,3.4,3,3.5,2,5.4,3
2014/2/12 5:42,3.5,4,3.6,2,8.2,3
2014/2/12 5:43,3.3,4,3.5,2,6.3,4
2014/2/12 5:44,3.2,4,3.3,3,7.2,3
2014/2/12 5:45,3,3,3.1,3,3.8,4
2014/2/12 5:46,3.1,3,3.1,3,6.3,2
2014/2/12 5:47,3.2,3,3.2,3,5.1,3
2014/2/12 5:48,3.2,3,3.2,3,5,2
2014/2/12 5:49,3.5,3,3.5,3,8.4,3
2014/2/12 5:50,3.6,3,3.6,3,6.9,4
2014/2/12 5:51,3.7,4,3.7,3,6.9,6
2014/2/12 5:52,3.5,4,3.7,3,4.8,6
2014/2/12 5:53,3.3,4,3.5,3,4.2,8
2014/2/12 5:54,3.2,4,3.2,3,3.8,1
2014/2/12 5:55,3.5,4,3.5,3,9.2,2
2014/2/12 5:56,3.7,4,3.7,3,9.2,1
2014/2/12 5:57,3.9,4,3.9,4,6,3
2014/2/12 5:58,3.8,4,3.8,4,3.1,1
2014/2/12 5:59,3.4,4,3.7,4,6,3
2014/2/12 6:00,3.2,4,3.3,4,6.2,3
2014/2/12 6:01,3,4,3.2,4,5.6,3
2014/2/12 6:02,3,3,3,4,6.3,2
2014/2/12 6:03,3.2,3,3.2,4,4.4,1
2014/2/12 6:04,3.2,3,3.3,4,4.7,1
2014/2/12 6:05,3.2,3,3.3,4,7.5,3
2014/2/12 6:06,3.2,3,3.2,4,8.2,3
2014/2/12 6:07,3.2,3,3.2,4,7.1,5
2014/2/12 6:08,3.4,3,3.4,4,6.3,5
2014/2/12 6:09,3.4,3,3.4,3,3,7
2014/2/12 6:10,3.3,3,3.4,3,3.2,2
2014/2/12 6:11,3.4,3,3.5,3,8.9,3
2014/2/12 6:12,3.4,3,3.4,3,4.5,2
2014/2/12 6:13,3.3,3,3.4,3,3.1,2
2014/2/12 6:14,3.3,3,3.3,3,7,3
2014/2/12 6:15,3.2,3,3.3,3,6.4,3
2014/2/12 6:16,3.1,3,3.2,3,6.2,3
2014/2/12 6:17,2.9,3,3.1,3,5.5,3
2014/2/12 6:18,2.9,3,2.9,3,5.2,3
2014/2/12 6:19,3.2,3,3.2,3,6.1,3
2014/2/12 6:20,3.3,3,3.3,3,4.9,3
2014/2/12 6:21,3,2,3.3,3,3.6,2
2014/2/12 6:22,3,3,3,3,3.2,4
2014/2/12 6:23,3.1,2,3.1,3,4.7,1
2014/2/12 6:24,3.1,2,3.1,3,8.6,1
2014/2/12 6:25,3.4,2,3.4,2,9,1
2014/2/12 6:26,3.4,2,3.5,2,9.8,2
2014/2/12 6:27,3.4,2,3.4,2,7.5,3
2014/2/12 6:28,3.5,2,3.5,2,7.4,3
2014/2/12 6:29,3.6,2,3.6,2,9.7,4
2014/2/12 6:30,3.8,2,3.8,2,7.6,16
2014/2/12 6:31,3.9,2,3.9,2,6.4,2
2014/2/12 6:32,4.1,2,4.1,2,6.3,3
2014/2/12 6:33,4.1,2,4.1,2,7,1
2014/2/12 6:34,4.2,2,4.3,2,6.9,1
2014/2/12 6:35,3.9,2,4.2,2,3.9,6
2014/2/12 6:36,3.8,3,3.9,2,5.5,8
2014/2/12 6:37,3.7,3,3.9,2,4.5,6
2014/2/12 6:38,3.4,3,3.7,2,3,3
2014/2/12 6:39,3.1,2,3.3,2,4.4,14
2014/2/12 6:40,2.8,2,3,2,3.6,1
2014/2/12 6:41,2.7,2,2.8,2,5.5,3
2014/2/12 6:42,2.7,3,2.7,2,6.2,1
2014/2/12 6:43,2.8,3,2.8,2,5.8,1
2014/2/12 6:44,2.5,3,2.7,2,3.3,3
2014/2/12 6:45,2.7,2,2.7,2,8.7,1
2014/2/12 6:46,2.8,2,2.8,3,7.8,16
2014/2/12 6:47,2.8,2,2.8,3,6.9,3
2014/2/12 6:48,2.9,2,2.9,3,4.4,5
2014/2/12 6:49,2.9,2,3,3,4.9,3
2014/2/12 6:50,3.1,2,3.1,2,5,1
2014/2/12 6:51,3.1,2,3.2,2,5.4,15
2014/2/12 6:52,2.9,2,3.1,2,7.4,1
2014/2/12 6:53,3,2,3,2,6.1,2
2014/2/12 6:54,3,2,3,2,4.7,1
2014/2/12 6:55,3,2,3,2,6.2,2
2014/2/12 6:56,2.8,2,3,2,5.6,2
2014/2/12 6:57,2.6,2,2.8,2,3.3,1
2014/2/12 6:58,2.9,2,2.9,2,9.7,1
2014/2/12 6:59,3.1,1,3.1,2,8.7,1
2014/2/12 7:00,3.3,2,3.3,2,9.2,3
2014/2/12 7:01,3.3,2,3.3,2,7,3
2014/2/12 7:02,3.6,2,3.6,2,7,3
2014/2/12 7:03,3.6,2,3.6,2,6.1,16
2014/2/12 7:04,3.8,1,3.8,2,8.6,2
2014/2/12 7:05,3.7,1,3.8,2,6.1,2
2014/2/12 7:06,3.7,1,3.7,2,4.7,3
2014/2/12 7:07,3.8,1,3.8,2,6.1,3
2014/2/12 7:08,3.7,1,3.8,2,6.7,1
2014/2/12 7:09,3.6,1,3.8,2,7.4,1
2014/2/12 7:10,3.3,1,3.6,2,4.4,4
2014/2/12 7:11,3.3,1,3.3,2,11.4,15
2014/2/12 7:12,3.4,1,3.4,2,8.5,2
2014/2/12 7:13,3.7,1,3.7,2,10.8,16
2014/2/12 7:14,3.9,1,3.9,1,9.9,15
2014/2/12 7:15,4.1,1,4.1,1,8.1,2
2014/2/12 7:16,4.2,1,4.2,1,6.9,1
2014/2/12 7:17,4.2,1,4.2,1,4.2,1
2014/2/12 7:18,4.2,1,4.2,1,5.5,2
2014/2/12 7:19,4,2,4.1,1,4.5,5
2014/2/12 7:20,4.1,1,4.1,1,4.5,11
2014/2/12 7:21,4.2,1,4.2,1,7.8,16
2014/2/12 7:22,4.2,1,4.3,1,9.1,16
2014/2/12 7:23,4.2,1,4.3,1,9.4,16
2014/2/12 7:24,3.9,1,4.1,1,7,1
2014/2/12 7:25,3.8,1,3.9,1,8.6,1
2014/2/12 7:26,4,1,4,1,8.6,15
2014/2/12 7:27,4,1,4,1,4.4,1
2014/2/12 7:28,4.2,1,4.2,1,11.5,2
2014/2/12 7:29,4.5,1,4.5,1,11.6,2
2014/2/12 7:30,4.5,1,4.5,1,5.7,3
2014/2/12 7:31,4.2,1,4.5,1,3.9,16
2014/2/12 7:32,3.7,1,4.1,1,2.7,3
2014/2/12 7:33,3.7,2,3.7,1,7.1,3
2014/2/12 7:34,3.7,2,3.7,1,6.8,4
2014/2/12 7:35,3.7,2,3.7,1,4.2,7
2014/2/12 7:36,3.4,3,3.7,1,4.7,4
2014/2/12 7:37,3.5,3,3.5,1,6.3,4
2014/2/12 7:38,3.2,3,3.5,1,3.8,4
2014/2/12 7:39,2.9,4,3.2,1,3.5,4
2014/2/12 7:40,3.1,3,3.1,1,9.1,1
2014/2/12 7:41,3.3,4,3.3,1,7.1,3
2014/2/12 7:42,3.6,4,3.6,1,8.5,3
2014/2/12 7:43,3.5,4,3.6,2,6.1,5
2014/2/12 7:44,3.5,4,3.5,2,5.5,2
2014/2/12 7:45,3.5,3,3.5,2,4.8,4
2014/2/12 7:46,3.8,3,3.8,3,8.6,1
2014/2/12 7:47,3.7,3,3.8,3,5.7,16
2014/2/12 7:48,3.7,2,3.7,3,7.4,2
2014/2/12 7:49,3.7,2,3.8,3,5.2,2
2014/2/12 7:50,3.3,3,3.7,3,1.4,8
2014/2/12 7:51,3.1,3,3.3,3,1.9,5
2014/2/12 7:52,2.8,3,3,3,3.2,2
2014/2/12 7:53,2.7,3,2.8,3,4.9,3
2014/2/12 7:54,2.5,3,2.7,3,3.3,4
2014/2/12 7:55,2.4,3,2.5,3,3.3,9
2014/2/12 7:56,2.1,3,2.4,3,7.6,1
2014/2/12 7:57,2.1,3,2.1,2,6.9,16
2014/2/12 7:58,2.3,3,2.3,2,9.4,3
2014/2/12 7:59,2.7,3,2.7,2,11.1,2
2014/2/12 8:00,3.1,2,3.1,3,9.2,2
2014/2/12 8:01,3.2,2,3.2,2,5,2
2014/2/12 8:02,3.3,2,3.3,2,5.8,2
2014/2/12 8:03,3.3,2,3.3,2,4.1,2
2014/2/12 8:04,3.5,1,3.5,1,8.1,1
2014/2/12 8:05,3.7,1,3.7,1,7.2,1
2014/2/12 8:06,4.2,1,4.2,1,11,1
2014/2/12 8:07,4,2,4.2,1,7,3
2014/2/12 8:08,3.8,2,4,1,4.3,1
2014/2/12 8:09,3.4,2,3.8,1,4.3,1
2014/2/12 8:10,3.4,2,3.4,1,8.7,3
2014/2/12 8:11,3.4,2,3.4,1,5.4,2
2014/2/12 8:12,3.7,2,3.7,1,9.3,1
2014/2/12 8:13,3.8,2,3.8,1,7,1
2014/2/12 8:14,3.9,2,4,1,8.9,4
2014/2/12 8:15,3.7,2,3.8,1,5.5,1
2014/2/12 8:16,3.4,2,3.7,1,8.2,16
2014/2/12 8:17,3.6,2,3.6,2,7.8,1
2014/2/12 8:18,3.7,2,3.7,2,4.8,1
2014/2/12 8:19,3.9,2,3.9,2,8.4,1
2014/2/12 8:20,3.9,2,3.9,2,7.8,1
2014/2/12 8:21,4.1,2,4.1,2,11.6,2
2014/2/12 8:22,3.9,2,4.1,2,5.7,4
2014/2/12 8:23,4.1,2,4.1,2,10.1,2
2014/2/12 8:24,4.1,2,4.1,2,10.1,1
2014/2/12 8:25,4.5,2,4.5,2,10.3,2
2014/2/12 8:26,4.4,2,4.5,2,8.2,4
2014/2/12 8:27,4.5,2,4.5,2,10.1,2
2014/2/12 8:28,4.7,2,4.7,2,7.5,2
2014/2/12 8:29,4.4,2,4.7,2,7.2,16
2014/2/12 8:30,4.3,2,4.4,2,5.1,15
2014/2/12 8:31,4.2,2,4.3,2,7.9,2
2014/2/12 8:32,4.5,2,4.5,2,9,1
2014/2/12 8:33,4.4,2,4.6,2,7.1,2
2014/2/12 8:34,4.2,2,4.4,2,6.8,2
2014/2/12 8:35,4.1,2,4.2,2,9.1,1
2014/2/12 8:36,4.2,1,4.3,2,10.1,16
2014/2/12 8:37,4.3,1,4.4,2,10.1,1
2014/2/12 8:38,4.3,1,4.4,2,8.1,1
2014/2/12 8:39,4.3,1,4.3,2,7.8,2
2014/2/12 8:40,4.6,1,4.6,2,7.4,1
2014/2/12 8:41,4.5,1,4.6,2,6.2,2
2014/2/12 8:42,4.3,1,4.5,2,7.2,16
2014/2/12 8:43,4.4,1,4.4,1,11.3,1
2014/2/12 8:44,4.6,1,4.6,1,7.9,1
2014/2/12 8:45,4.4,1,4.7,1,4.4,16
2014/2/12 8:46,4,1,4.2,1,4.4,1
2014/2/12 8:47,3.9,1,4,1,8.6,16
2014/2/12 8:48,4,1,4,1,8.4,16
2014/2/12 8:49,4.2,1,4.2,1,7.5,2
2014/2/12 8:50,4.3,1,4.3,1,9.2,2
2014/2/12 8:51,4.3,1,4.4,1,7.2,1
2014/2/12 8:52,4.2,1,4.3,1,4.1,2
2014/2/12 8:53,3.9,1,4.2,1,5.6,1
2014/2/12 8:54,3.8,1,3.8,1,9.4,16
2014/2/12 8:55,4,1,4,1,10.1,1
2014/2/12 8:56,4.3,1,4.3,1,9.2,16
2014/2/12 8:57,4.5,1,4.6,1,11.3,16
2014/2/12 8:58,4.7,1,4.7,1,11.7,1
2014/2/12 8:59,4.7,1,4.7,1,10,16
2014/2/12 9:00,4.5,1,4.7,1,6.7,16
2014/2/12 9:01,4.4,1,4.5,1,7.7,1
2014/2/12 9:02,4.7,1,4.7,1,9.5,1
2014/2/12 9:03,4.9,1,4.9,1,8.5,16
2014/2/12 9:04,4.9,1,4.9,1,9.7,15
2014/2/12 9:05,5.1,1,5.1,1,11.8,16
2014/2/12 9:06,5,1,5.1,1,9.7,2
2014/2/12 9:07,4.9,1,5,1,7.1,1
2014/2/12 9:08,4.7,1,4.9,1,8.3,16
2014/2/12 9:09,4.5,1,4.6,1,8.2,14
2014/2/12 9:10,4.4,1,4.5,1,5.7,16
2014/2/12 9:11,4.4,16,4.4,1,7.9,2
2014/2/12 9:12,4.4,16,4.4,1,9.1,2
2014/2/12 9:13,4.5,1,4.5,1,10.1,1
2014/2/12 9:14,4.8,1,4.8,1,11.6,2
2014/2/12 9:15,4.5,1,4.8,1,6.5,16
2014/2/12 9:16,4.6,1,4.6,1,9,16
2014/2/12 9:17,4.8,1,4.8,1,11.4,1
2014/2/12 9:18,4.7,1,4.8,1,10.7,2
2014/2/12 9:19,5,1,5,1,10.8,16
2014/2/12 9:20,5.4,1,5.4,1,11.5,16
2014/2/12 9:21,5.5,1,5.5,1,9.7,16
2014/2/12 9:22,5.5,16,5.5,1,9.1,13
2014/2/12 9:23,5.3,16,5.5,1,7,15
2014/2/12 9:24,5,16,5.3,1,7,15
2014/2/12 9:25,5.2,1,5.2,1,11.3,1
2014/2/12 9:26,5,16,5.2,1,6,1
2014/2/12 9:27,4.7,16,5,1,10.8,2
2014/2/12 9:28,5,16,5,1,13.2,16
2014/2/12 9:29,5.1,16,5.1,1,14.4,2
2014/2/12 9:30,5.1,16,5.2,1,11.5,2
2014/2/12 9:31,5.4,16,5.4,1,11.9,16
2014/2/12 9:32,5.5,16,5.5,16,12.5,1
2014/2/12 9:33,5.9,1,5.9,1,10.5,2
2014/2/12 9:34,6.3,1,6.3,1,12.3,16
2014/2/12 9:35,6.3,16,6.4,1,9.5,1
2014/2/12 9:36,6.4,16,6.4,1,9.2,2
2014/2/12 9:37,6.9,16,6.9,16,11.8,15
2014/2/12 9:38,6.8,16,6.9,16,9.9,15
2014/2/12 9:39,6.6,16,6.8,16,8.6,1
2014/2/12 9:40,6.4,16,6.5,16,10.3,2
2014/2/12 9:41,6.3,16,6.5,16,10.9,16
2014/2/12 9:42,6.1,16,6.3,16,8.9,2
2014/2/12 9:43,5.9,16,6.1,16,8.4,1
2014/2/12 9:44,5.8,16,5.9,16,9.8,16
2014/2/12 9:45,5.8,16,5.8,16,9.3,15
2014/2/12 9:46,5.9,16,6,16,12.2,1
2014/2/12 9:47,5.5,16,5.9,16,6,16
2014/2/12 9:48,5.4,16,5.4,16,11.9,16
2014/2/12 9:49,5.5,16,5.5,16,10,16
2014/2/12 9:50,5.6,16,5.6,16,10.2,1
2014/2/12 9:51,5.5,16,5.7,16,9.4,16
2014/2/12 9:52,5.3,16,5.5,16,6.4,1
2014/2/12 9:53,5.4,16,5.4,16,10.6,1
2014/2/12 9:54,5.3,16,5.4,16,13,16
2014/2/12 9:55,5.2,16,5.3,16,9,2
2014/2/12 9:56,5,16,5.2,16,9.8,2
2014/2/12 9:57,5.2,16,5.3,16,10.8,16
2014/2/12 9:58,5.2,16,5.4,16,12.2,16
2014/2/12 9:59,5.2,16,5.2,16,10.9,16
2014/2/12 10:00,5.3,16,5.3,16,14.1,16
2014/2/12 10:01,5.4,16,5.4,16,12.7,16
2014/2/12 10:02,5.6,16,5.6,16,9.5,15
2014/2/12 10:03,5.5,16,5.7,16,10.2,1
2014/2/12 10:04,5.5,16,5.6,16,10.2,2
2014/2/12 10:05,5.8,16,5.8,16,12.8,15
2014/2/12 10:06,5.9,16,5.9,16,11.5,1
2014/2/12 10:07,5.9,1,5.9,16,8.6,2
2014/2/12 10:08,6,1,6,1,11,16
2014/2/12 10:09,5.9,1,6.1,1,10,3
2014/2/12 10:10,5.8,1,5.9,1,13.2,1
2014/2/12 10:11,5.9,1,5.9,1,11.6,16
2014/2/12 10:12,6,1,6,1,9.9,1
2014/2/12 10:13,6.2,1,6.2,1,10.8,16
2014/2/12 10:14,6.1,1,6.2,1,11.1,1
2014/2/12 10:15,5.7,1,6,1,6.1,3
2014/2/12 10:16,5.3,1,5.6,1,4.7,16
2014/2/12 10:17,5.4,1,5.4,1,8.4,1
2014/2/12 10:18,5.4,1,5.4,1,10.5,2
2014/2/12 10:19,5.5,1,5.5,1,9.8,15
2014/2/12 10:20,5.2,1,5.6,1,9,15
2014/2/12 10:21,5.2,1,5.2,1,14.7,1
2014/2/12 10:22,5.2,1,5.2,1,11.9,2
2014/2/12 10:23,5.1,1,5.2,1,9.1,2
2014/2/12 10:24,5.3,1,5.3,1,12.7,16
2014/2/12 10:25,5.5,16,5.5,1,10.6,16
2014/2/12 10:26,5.8,16,5.8,16,10.2,16
2014/2/12 10:27,5.6,16,5.8,16,5.5,15
2014/2/12 10:28,5.4,16,5.6,16,6.8,15
2014/2/12 10:29,5.6,16,5.6,16,12.1,16
2014/2/12 10:30,5.5,16,5.7,16,11,16
2014/2/12 10:31,5.3,16,5.5,16,9,16
2014/2/12 10:32,5.2,16,5.4,16,10.1,16
2014/2/12 10:33,5.2,16,5.2,16,9.3,16
2014/2/12 10:34,5.1,16,5.3,16,11.1,16
2014/2/12 10:35,5.2,16,5.2,16,9.8,1
2014/2/12 10:36,5.2,16,5.3,16,10,16
2014/2/12 10:37,5.4,16,5.4,16,12.6,1
2014/2/12 10:38,5.6,16,5.7,16,13.8,16
2014/2/12 10:39,5.5,16,5.7,16,12.2,15
2014/2/12 10:40,5.6,16,5.6,16,10,16
2014/2/12 10:41,5.8,16,5.8,16,9.3,16
2014/2/12 10:42,5.9,16,5.9,16,8.5,16
2014/2/12 10:43,6.2,16,6.2,16,13.9,16
2014/2/12 10:44,6.1,16,6.2,16,8.5,16
2014/2/12 10:45,5.9,16,6,16,8.4,15
2014/2/12 10:46,5.9,16,5.9,16,12.1,2
2014/2/12 10:47,6,16,6.1,16,9.1,1
2014/2/12 10:48,5.6,16,5.9,16,6.7,15
2014/2/12 10:49,5.6,16,5.6,16,11,1
2014/2/12 10:50,5.6,16,5.7,16,11.5,1
2014/2/12 10:51,5.6,16,5.6,16,12.3,16
2014/2/12 10:52,5.7,16,5.8,16,12.3,1
2014/2/12 10:53,5.5,16,5.6,16,13.6,1
2014/2/12 10:54,5.5,1,5.6,16,10.2,1
2014/2/12 10:55,5.7,1,5.8,16,10.9,1
2014/2/12 10:56,5.7,1,5.7,16,8.5,16
2014/2/12 10:57,5.7,1,5.7,16,6.1,16
2014/2/12 10:58,5.7,1,5.7,16,7.9,1
2014/2/12 10:59,5.6,1,5.8,16,8.3,16
2014/2/12 11:00,5.6,1,5.7,16,7.8,16
2014/2/12 11:01,5.7,1,5.8,16,9.4,1
2014/2/12 11:02,5.5,1,5.6,1,7.7,1
2014/2/12 11:03,5.2,1,5.5,1,9.4,2
2014/2/12 11:04,4.8,16,5.2,1,5.5,15
2014/2/12 11:05,4.6,16,4.8,1,8.2,15
2014/2/12 11:06,4.7,16,4.7,1,10.6,16
2014/2/12 11:07,4.8,16,4.9,1,10.3,16
2014/2/12 11:08,4.7,16,4.9,1,6.3,13
2014/2/12 11:09,4.8,16,4.8,1,10.2,15
2014/2/12 11:10,4.9,16,4.9,1,12.7,16
2014/2/12 11:11,4.8,16,5,1,11.5,16
2014/2/12 11:12,4.9,16,4.9,1,11.8,1
2014/2/12 11:13,5,16,5,1,11,16
2014/2/12 11:14,5.7,16,5.7,16,14.4,16
2014/2/12 11:15,5.9,16,6,16,10.3,16
2014/2/12 11:16,5.9,16,6,16,10.7,16
2014/2/12 11:17,5.7,16,5.9,16,7.2,16
2014/2/12 11:18,5.7,16,5.7,16,7.6,2
2014/2/12 11:19,5.5,16,5.7,16,7.4,1
2014/2/12 11:20,5.5,16,5.5,16,10,16
2014/2/12 11:21,5.6,16,5.7,16,11.8,15
2014/2/12 11:22,5.6,16,5.7,16,8.4,15
2014/2/12 11:23,5.3,16,5.5,16,9,1
2014/2/12 11:24,4.8,16,5.3,16,8.9,16
2014/2/12 11:25,4.6,16,4.8,16,9.7,16
2014/2/12 11:26,4.7,16,4.8,16,12.2,2
2014/2/12 11:27,4.7,16,4.7,16,9.3,2
2014/2/12 11:28,4.8,16,4.8,16,7.2,2
2014/2/12 11:29,4.8,16,4.8,16,9.8,2
2014/2/12 11:30,4.7,16,4.8,16,8.9,15
2014/2/12 11:31,4.5,16,4.7,16,8.7,15
2014/2/12 11:32,4.8,1,4.8,16,13.5,16